This demonstration page uses our WeatherBlox Daily Observations layout. Learn more.

Left ArrowRight Arrow

Hourly Observations for August 2, 2018

Temp ( °F °C ) Dew Point ( °F °C ) Humidity (%) Winds ( mph kmh ) Pressure ( in mb ) Visibility ( mi km ) Precip ( " mm )
12:52 am 00:52 Clear 65 18.3 56 13.3 73 73 Calm 30.01 1016 10 16 0.00 0.00
1:52 am 01:52 Clear 63 17.2 56 13.3 78 78 Calm 29.99 1016 10 16 0.00 0.00
2:52 am 02:52 Clear 63 17.2 55 12.8 76 76 Calm 30.00 1016 10 16 0.00 0.00
3:52 am 03:52 Clear 64 17.8 55 12.8 73 73 Calm 30.00 1016 10 16 0.00 0.00
4:52 am 04:52 Clear 62 16.7 55 12.8 78 78 Calm 30.02 1017 10 16 0.00 0.00
5:52 am 05:52 Clear 61 16.1 55 12.8 81 81 Calm 30.03 1017 10 16 0.00 0.00
6:52 am 06:52 Sunny 61 16.1 56 13.3 84 84 SSE 3 6 30.04 1017 10 16 0.00 0.00
7:52 am 07:52 Sunny 70 21.1 59 15 68 68 Calm 30.04 1017 10 16 0.00 0.00
8:52 am 08:52 Sunny 78 25.6 59 15 52 52 W 7 11 30.05 1018 10 16 0.00 0.00
9:52 am 09:52 Sunny 83 28.3 59 15 44 44 W 7 11 30.04 1017 10 16 0.00 0.00
10:52 am 10:52 Sunny 86 30 59 15 40 40 undefined N/A 30.05 1018 10 16 0.00 0.00
11:52 am 11:52 Sunny 87 30.6 56 13.3 35 35 W 9 15 30.04 1017 10 16 0.00 0.00
12:52 pm 12:52 Mostly Sunny 88 31.1 56 13.3 34 34 W 12 19 30.02 1017 10 16 0.00 0.00
1:52 pm 13:52 Partly Cloudy 90 32.2 56 13.3 32 32 W 8 13 30.00 1016 10 16 0.00 0.00
2:52 pm 14:52 Mostly Sunny 90 32.2 55 12.8 31 31 undefined N/A 30.00 1016 10 16 0.00 0.00
3:52 pm 15:52 Partly Cloudy 91 32.8 55 12.8 30 30 VRB 3 6 29.98 1015 10 16 0.00 0.00
4:52 pm 16:52 Sunny 92 33.3 55 12.8 29 29 W 5 7 29.98 1015 10 16 0.00 0.00
5:52 pm 17:52 Sunny 92 33.3 55 12.8 29 29 VRB 3 6 29.97 1015 10 16 0.00 0.00
6:52 pm 18:52 Sunny 91 32.8 56 13.3 31 31 NNW 6 9 29.97 1015 10 16 0.00 0.00
7:52 pm 19:52 Sunny 87 30.6 57 13.9 36 36 WNW 5 7 29.98 1015 10 16 0.00 0.00
8:52 pm 20:52 Mostly Cloudy 83 28.3 57 13.9 41 41 W 7 11 29.98 1015 10 16 0.00 0.00
9:52 pm 21:52 Clear 78 25.6 57 13.9 48 48 WSW 6 9 30.00 1016 10 16 0.00 0.00
10:52 pm 22:52 Clear 73 22.8 57 13.9 57 57 SSW 7 11 30.02 1017 10 16 0.00 0.00
11:52 pm 23:52 Clear 75 23.9 57 13.9 54 54 Calm 30.02 1017 10 16 0.00 0.00

Powered by AerisWeather